Tracking 17921 objects as of 16-January-2017
HD Live streaming from Space Station
objects crossing your sky now

CZ-2D DEB

Track CZ-2D DEB now!
10-day predictions


NORAD ID: 35272
Int'l Code: 2005-024L
Perigee: 515.8 km
Apogee: 535.6 km
Inclination: 97.6 °
Period: 95.0 minutes
Semi major axis: 6896 km
RCS: 0.0215 m2 (small)
Launch date: July 5, 2005
Source: People's Republic of China (PRC)
Launch site: Jiuquan Satellite Launch Center, China (JSC)

Note: This is SATELLITE DEBRIS
Your satellite tracking list
Your tracking list is empty





NASA's NSSDC Master Catalog

Two Line Element Set (TLE):
1 35272U 05024L   17013.92163343 +.00000428 +00000-0 +25947-4 0  9998
2 35272 097.5806 056.3820 0014359 035.7158 087.1183 15.15792556614578
Source of the keplerian elements: AFSPC